OpenBCM V1.13 (Linux)

Packet Radio Mailbox

DB0FHN

[JN59NK Nuernberg]

 Login: GUEST





  
CX2SA  > KEPS     17.08.04 07:32l 165 Lines 7765 Bytes #999 (0) @ AMSAT
BID : ORB04229.N
Read: GUEST DL7NDR
Subj: 2Line Orbital Elements 04229.AMSAT
Path: DB0FHN<DB0THA<DB0ERF<DB0FBB<DB0GOS<DB0EEO<DB0RES<ON0AR<IW2ESA<IK1ZNW<
      I0TVL<CX2SA
Sent: 040817/0518Z @:CX2SA.LAV.URY.SA #:1395 [Minas] FBB7.00e $:ORB04229.N
From: CX2SA@CX2SA.LAV.URY.SA
To  : KEPS@AMSAT


HR AMSAT ORBITAL ELEMENTS FOR AMATEUR SATELLITES IN NASA FORMAT
FROM WA5QGD FORT WORTH,TX August 16, 2004
SEND SUBSCRIBE/UNSUBSCRIBE TO majordomo@amsat.org ONLY
BID: ORB04229.N

DECODE 2-LINE ELSETS WITH THE FOLLOWING KEY:
1 AAAAAU 00  0  0 BBBBB.BBBBBBBB  .CCCCCCCC  00000-0  00000-0 0  DDDZ
2 AAAAA EEE.EEEE FFF.FFFF GGGGGGG HHH.HHHH III.IIII JJ.JJJJJJJJKKKKKZ
KEY: A-CATALOGNUM B-EPOCHTIME C-DECAY D-ELSETNUM E-INCLINATION F-RAAN
G-ECCENTRICITY H-ARGPERIGEE I-MNANOM J-MNMOTION K-ORBITNUM Z-CHECKSUM

TO ALL RADIO AMATEURS BT

AO-07
1 07530U 74089B   04228.97218644 -.00000029  00000-0  10000-3 0 03147
2 07530 101.6794 274.7646 0012223 105.3357 254.9068 12.53568907361409
AO-10
1 14129U 83058B   04227.89744366 -.00000047  00000-0  10000-3 0 00901
2 14129 026.5518 076.7153 6023055 115.7093 316.8071 02.05866677159224
UO-11
1 14781U 84021B   04229.79095270  .00000152  00000-0  28012-4 0  5544
2 14781  98.1764 215.6507 0008041 256.0960 103.9355 14.78969822 96800
RS-10/11
1 18129U 87054A   04228.69859834  .00000021  00000-0  60686-5 0 04936
2 18129 082.9238 104.1149 0012024 148.3475 211.8405 13.72742467859169
FO-20
1 20480U 90013C   04228.70629471 -.00000059  00000-0 -56360-4 0  6963
2 20480  99.0425  94.9080 0539939 211.9703 144.7553 12.83340842680318
RS-12/13
1 21089U 91007A   04229.87543307  .00000030  00000-0  16058-4 0  7187
2 21089  82.9242 136.7405 0027970 205.1429 154.8366 13.74439827678690
RS-15
1 23439U 94085A   04228.50685870 -.00000027  00000-0  45319-3 0 08042
2 23439 064.8147 241.8996 0154207 010.6571 349.7561 11.27549624396926
FO-29
1 24278U 96046B   04229.29502159 -.00000017  00000-0  21691-4 0  7853
2 24278  98.5868 313.3888 0349807 245.9554 110.4614 13.52901420394963
SO-33
1 25509U 98061B   04229.57844359  .00000293  00000-0  48335-4 0  1754
2 25509  31.4315 314.1819 0355455  23.8804 337.8014 14.27860550303256
AO-40
1 26609U 00072B   04228.37185880 -.00000245  00000-0  10000-3 0  4247
2 26609   9.9539 347.1779 7973706 311.0949   3.9980  1.25585652 17415
UO-14
1 20437U 90005B   04228.64982697 -.00000027  00000-0  50010-5 0  5680
2 20437  98.2084 249.2841 0011355  28.3943 331.7850 14.31365856760320
AO-16
1 20439U 90005D   04228.71008008  .00000011  00000-0  19299-4 0  2553
2 20439  98.2436 263.8413 0011890  34.7001 325.4957 14.31623261760381
WO-18
1 20441U 90005F   04229.35968366  .00000013  00000-0  20135-4 0  4419
2 20441  98.2573 268.4594 0012606  33.0368 327.1600 14.31699321760532
LO-19
1 20442U 90005G   04228.71547132  .00000027  00000-0  25303-4 0 02193
2 20442 098.2712 271.8627 0012758 034.1140 326.0861 14.31869904760501
UO-22
1 21575U 91050B   04229.18725498  .00000026  00000-0  21651-4 0  1793
2 21575  98.1965 200.8061 0006381 291.7837  68.2679 14.39405823686627
KO-23
1 22077U 92052B   04228.92474072 -.00000037  00000-0  10000-3 0 03075
2 22077 066.0817 065.7440 0007197 327.7037 032.3540 12.86424819564329
AO-27
1 22825U 93061C   04229.35480500 -.00000063  00000-0 -90361-5 0  9186
2 22825  98.2424 235.1931 0009596  87.0193 273.2103 14.29079380567684
IO-26
1 22826U 93061D   04228.94724223  .00000045  00000-0  33502-4 0 06070
2 22826 098.2395 236.0838 0010054 085.6507 274.5828 14.29316163567683
KO-25
1 22828U 93061F   04229.08201189  .00000064  00000-0  40915-4 0  8539
2 22828  98.2355 236.4532 0010913  65.7050 294.5284 14.29637014535923
TO-31
1 25396U 98043C   04228.96554808 -.00000043  00000-0  00000-0 0 01125
2 25396 098.5711 298.7475 0002586 014.0603 346.0647 14.23629805316982
GO-32
1 25397U 98043D   04229.34589326 -.00000072  00000-0 -12952-4 0  5380
2 25397  98.5633 297.1912 0001591  45.8937 314.2368 14.23048201316973
UO-36
1 25693U 99021A   04229.81365457 -.00000039  00000-0  14531-4 0  3593
2 25693  64.5587 138.3772 0048055 251.1137 108.4754 14.78370056286821
SO-41
1 26545U 00057A   04229.36111847  .00000307  00000-0  59426-4 0  8520
2 26545  64.5581 156.2692 0014761   5.4510 354.6768 14.79829385209813
MO-46
1 26548U 00057D   04228.75754676  .00000406  00000-0  68550-4 0  9516
2 26548  64.5570 144.5488 0015232 341.6094  18.4476 14.82370668210006
SO-42
1 26549U 00057E   04229.32427592  .00000266  00000-0  55140-4 0  9420
2 26549  64.5521 163.3571 0014990  26.2297 333.9562 14.78722991209673
NO-44
1 26931U 01043C   04229.09848288  .00000123  00000-0  80851-4 0  8332
2 26931  67.0556 293.5178 0006404 273.2039  86.8334 14.29315659150167
AO-49
1 27605U 02058A   04229.49324265  .00000119  00000-0  39937-4 0  5124
2 27605  64.5604 341.6367 0080724 299.7156  59.5908 14.71910790 89009
SO-50
1 27607U 02058C   04228.82200741  .00000175  00000-0  49598-4 0  4938
2 27607  64.5604 347.5972 0081881 298.9266  60.3646 14.70694324 88825
AO-51
1 28375U 04025K   04229.66569327  .00000052  00000-0  28632-4 0   439
2 28375  98.2563 297.5962 0085274  70.5449 290.4952 14.40381995  6770
NOAA-10
1 16969U 86073A   04229.36990864  .00000114  00000-0  65186-4 0  3559
2 16969  98.7566 228.5009 0011734 304.2348  55.7720 14.27207844931615
NOAA-11
1 19531U 88089A   04229.40484052 -.00000095  00000-0 -26575-4 0  2141
2 19531  98.8657 312.9107 0012527  95.1856 265.0736 14.14724597819830
NOAA-12
1 21263U 91032A   04229.39843983  .00000085  00000-0  54852-4 0  6980
2 21263  98.6728 216.5691 0011855 233.4344 126.5743 14.25402512688825
MET-3/5
1 21655U 91056A   04228.92938743  .00000051  00000-0  10000-3 0 06673
2 21655 082.5567 014.3028 0012365 280.6578 079.3152 13.16995279625131
MET-2/21
1 22782U 93055A   04229.67094927  .00000121  00000-0  96741-4 0  9809
2 22782  82.5508 142.5553 0020932 257.0756 102.8073 13.83567597553462
OKEAN-4
1 23317U 94066A   04229.91672699  .00000592  00000-0  71480-4 0  4262
2 23317  82.5408 181.0200 0024316  60.0687 300.2936 14.81852689530845
NOAA-14
1 23455U 94089A   04229.35066368  .00000210  00000-0  13612-3 0  2445
2 23455  99.1355 266.0065 0009717 135.4598 224.7356 14.13480139496436
SICH-1
1 23657U 95046A   04228.92454127  .00000453  00000-0  55246-4 0 02314
2 23657 082.5318 322.7607 0025805 047.5219 312.8170 14.80892591482774
NOAA-15
1 25338U 98030A   04229.36467816  .00000063  00000-0  45717-4 0  6982
2 25338  98.5202 240.9089 0010603 163.2232 196.9301 14.24443688325351
RESURS
1 25394U 98043A   04229.55383631 -.00000004  00000-0  17109-4 0  8781
2 25394  98.5787 300.8306 0001427   6.2856 353.8341 14.24017673317092
FENGYUN1
1 25730U 99025A   04229.59871930  .00000001  00000-0  23430-4 0  2092
2 25730  98.6030 237.6271 0013458 249.9281 110.0479 14.11775881271532
OKEAN-0
1 25860U 99039A   04228.92733855  .00000119  00000-0  25757-4 0 02386
2 25860 097.7931 261.6924 0002184 096.3969 263.7488 14.73099629273062
NOAA-16
1 26536U 00055A   04229.06362829  .00000385  00000-0  23400-3 0  9870
2 26536  98.9648 180.5161 0010222 204.1575 155.9138 14.12143229200992
NOAA-17
1 27453U 02032A   04229.39979849  .00000039  00000-0  36271-4 0   113
2 27453  98.6976 301.0021 0011507 214.9396 145.1028 14.23558154111476
HUBBLE
1 20580U 90037B   04229.75934260  .00000920  00000-0  60496-4 0  1326
2 20580  28.4685  91.7107 0003988 279.4390  80.5753 14.99257936584502
UARS
1 21701U 91063B   04228.78942371  .00000175  00000-0  31407-4 0  2453
2 21701  56.9813 347.8334 0006696 107.7822 252.3941 15.03595564707554
PO-34
1 25520U 98064B   04228.91874568  .00001064  00000-0  44513-4 0  9919
2 25520  28.4601 192.3240 0006128 145.9786 214.1210 15.15672086320215
ISS
1 25544U 98067A   04230.01793981  .00019393  00000-0  15603-3 0  4603
2 25544  51.6327  15.2067 0005364 121.3768  33.0504 15.70950851327876
OO-38
1 26063U 00004C   04229.50915444  .00000070  00000-0  44599-4 0  1376
2 26063 100.2180  27.4794 0036748 192.0622 167.9690 14.35661600238579
NO-45
1 26932U 01043D   04228.88107884 -.00000052  00000-0  11960-4 0  8303
2 26932  67.0592 293.7224 0004446 276.8953  83.1640 14.29436835150160


Read previous mail | Read next mail


 04.09.2026 20:24:25lGo back Go up